Home > Weather > Burbank > Past weeks

Flag for U.S.A. Weather for the Past 2 Weeks in Burbank, California, U.S.A.

Now
63 °F

Clear.


Feels Like: 63 °F
Forecast: 56 / 85 °F
Wind: 3 mph from Southeast

Location: Bob Hope Airport

Current Time: Feb 11, 2016 at 1:31:50 AM

Latest Report: Feb 11, 2016 at 12:53 AM


Visibility: 10 mi

Pressure: 30.07 "Hg

Humidity: 29%

Dew point: 30 °F

Location of BurbankLocation

Historic Weather in Burbank — Graph

°F

Burbank Temperature Yesterday

Maximum temperature yesterday: 86 °F (at 1:53 PM)
Minimum temperature yesterday: 54 °F (at 6:53 AM)
Average temperature yesterday: 70 °F

High & Low Weather Summary for the Past Weeks

 TemperatureHumidityPressure
High87 °F (Feb 9, 2:53 PM)94% (Jan 31, 7:59 AM)30.34 "Hg (Jan 31, 7:59 AM)
Low39 °F (Feb 2, 5:53 AM)7% (Feb 7, 2:53 PM)29.54 "Hg (Jan 31, 1:53 PM)
Average59 °F38%30.10 "Hg
* Reported Jan 26 11:53 PM — Feb 10 11:53 PM, Burbank, Weather by CustomWeather, © 2016

Note: Actual official high and low records may vary slightly from our data, if they occured in-between our weather recording intervals... More about our weather records

Advertising

Burbank Weather History for the Previous 24 Hours

 ConditionsComfort  
Time TempWeatherWind HumidityBarometerVisibility
11:53 PM
Wed, Feb 10
61 °FClear.5 mph35%30.07 "Hg10 mi
10:53 PM64 °FClear.No wind32%30.08 "Hg10 mi
9:53 PM67 °FClear.No wind27%30.07 "Hg10 mi
8:53 PM68 °FClear.5 mph27%30.07 "Hg10 mi
7:53 PM70 °FClear.6 mph25%30.07 "Hg10 mi
6:53 PM75 °FClear.5 mph21%30.07 "Hg10 mi
5:53 PM79 °FClear.No wind14%30.06 "Hg10 mi
4:53 PM82 °FSunny.6 mph13%30.04 "Hg10 mi
3:53 PM85 °FSunny.8 mph13%30.03 "Hg10 mi
2:53 PM86 °FSunny.No wind10%30.03 "Hg10 mi
1:53 PM86 °FSunny.No wind11%30.05 "Hg10 mi
12:53 PM84 °FSunny.No wind11%30.07 "Hg10 mi
11:53 AM82 °FSunny.3 mph13%30.11 "Hg10 mi
10:53 AM78 °FPleasantly warm.No wind19%30.14 "HgN/A
9:53 AM73 °FSunny.No wind24%30.14 "Hg10 mi
8:53 AM66 °FSunny.No wind27%30.14 "Hg10 mi
7:53 AM57 °FSunny.No wind34%30.12 "Hg10 mi
6:53 AM54 °FSunny.No wind37%30.11 "Hg10 mi
5:53 AM55 °FClear.No wind34%30.10 "Hg10 mi
4:53 AM59 °FClear.No wind27%30.09 "Hg10 mi
3:53 AM61 °FClear.No wind24%30.09 "Hg10 mi
2:53 AM62 °FClear.No wind24%30.09 "Hg10 mi
1:53 AM61 °FClear.No wind31%30.09 "Hg10 mi
Weather by CustomWeather, © 2016

See weather overviewHow to use our weather pages